FW8282 Weather Reports


Display with metric or nautical units.
time (UTC)temp
F
wind
direction
speed
MPH
gust
MPH
rain 1hr
in
rain 24hr
in
rain mn
in
humidity
%
barometer
mb
20260504043245 66 152 0.0 0.0 0.00 0.00 0.00 86 1016.4
20260504042743 66 134 0.0 0.0 0.00 0.00 0.00 86 1016.5
20260504042239 67 155 0.0 0.0 0.00 0.00 0.00 85 1016.2
20260504041736 67 164 0.0 0.0 0.00 0.00 0.00 85 1016.5
20260504041232 67 138 0.0 0.0 0.00 0.00 0.00 85 1016.6
20260504040728 67 141 0.0 0.0 0.00 0.00 0.00 85 1016.3
20260504040226 67 141 0.0 0.0 0.00 0.00 0.00 84 1016.5
20260504035722 67 134 0.0 0.0 0.00 0.00 0.00 84 1016.6
20260504035219 67 155 0.0 0.0 0.00 0.00 0.00 83 1016.4
20260504034717 67 144 0.0 0.0 0.00 0.00 0.00 82 1016.6
20260504034214 68 129 0.0 0.0 0.00 0.00 0.00 81 1016.5
20260504033711 68 128 0.0 0.0 0.00 0.00 0.00 80 1016.6
20260504033208 68 111 0.0 0.0 0.00 0.00 0.00 80 1016.5
20260504032705 69 146 0.0 0.0 0.00 0.00 0.00 79 1016.4
20260504032203 69 137 0.0 0.0 0.00 0.00 0.00 79 1016.3
20260504031659 70 150 0.0 0.0 0.00 0.00 0.00 78 1016.4
20260504031155 70 99 0.0 0.0 0.00 0.00 0.00 78 1016.3
20260504030652 70 144 0.0 0.0 0.00 0.00 0.00 78 1016.3
20260504030149 70 160 0.0 0.0 0.00 0.00 0.00 77 1016.3
20260504025646 70 159 0.0 0.0 0.00 0.00 0.00 77 1016.2
20260504025142 71 156 0.0 0.0 0.00 0.00 0.00 77 1016.3
20260504024640 71 155 0.0 0.0 0.00 0.00 0.00 77 1016.0
20260504024136 71 104 0.0 0.0 0.00 0.00 0.00 76 1016.3
20260504023633 71 126 0.0 0.0 0.00 0.00 0.00 76 1016.3
20260504023130 71 167 0.0 0.0 0.00 0.00 0.00 76 1016.2
20260504022626 71 64 0.0 0.0 0.00 0.00 0.00 75 1016.0
20260504022122 71 156 0.0 0.0 0.00 0.00 0.00 75 1016.0
20260504021620 71 133 0.0 0.0 0.00 0.00 0.00 75 1015.8
20260504021116 71 84 0.0 0.0 0.00 0.00 0.00 74 1016.0
20260504020613 71 131 0.0 0.0 0.00 0.00 0.00 75 1015.8
20260504020109 72 152 0.0 0.0 0.00 0.00 0.00 74 1015.7
20260504015606 72 119 0.0 0.0 0.00 0.00 0.00 74 1015.8
20260504015102 72 122 0.0 0.0 0.00 0.00 0.00 74 1015.7
20260504014558 72 150 0.0 0.0 0.00 0.00 0.00 74 1015.6
20260504014055 72 152 0.0 0.0 0.00 0.00 0.00 74 1015.4
20260504013553 72 90 0.0 0.0 0.00 0.00 0.00 73 1015.3
20260504013050 72 93 0.0 0.0 0.00 0.00 0.00 73 1015.5
20260504012547 73 150 0.0 1.0 0.00 0.00 0.00 73 1015.2
20260504012045 73 166 0.0 0.0 0.00 0.00 0.00 72 1015.3
20260504011542 73 105 1.0 2.0 0.00 0.00 0.00 72 1015.0
20260504011038 73 196 0.0 0.0 0.00 0.00 0.00 72 1015.2
20260504010533 74 143 0.0 0.0 0.00 0.00 0.00 72 1015.2
20260504010030 74 123 0.0 1.0 0.00 0.00 0.00 71 1015.2
20260504005526 74 145 0.0 0.0 0.00 0.00 0.00 71 1014.7
20260504005024 74 149 0.0 0.0 0.00 0.00 0.00 69 1014.8
20260504004522 74 172 0.0 0.0 0.00 0.00 0.00 67 1014.8
20260504004019 74 105 0.0 0.0 0.00 0.00 0.00 68 1014.6
20260504003515 73 127 0.0 0.0 0.00 0.00 0.00 67 1014.7
20260504003012 74 130 0.0 0.0 0.00 0.00 0.00 66 1014.5
20260504002509 74 133 0.0 0.0 0.00 0.00 0.00 65 1014.6
20260504002006 74 157 0.0 0.0 0.00 0.00 0.00 65 1014.5
20260504001504 74 136 0.0 0.0 0.00 0.00 0.00 65 1014.7
20260504001000 74 121 0.0 0.0 0.00 0.00 0.00 65 1014.2
20260504000457 75 119 0.0 0.0 0.00 0.00 0.00 63 1014.7
20260503235954 75 140 0.0 0.0 0.00 0.00 0.00 61 1014.3
20260503235452 76 140 0.0 0.0 0.00 0.00 0.00 62 1014.1
20260503234949 77 136 0.0 0.0 0.00 0.00 0.00 59 1014.5
20260503234446 77 124 0.0 0.0 0.00 0.00 0.00 60 1014.3
20260503233944 78 118 0.0 0.0 0.00 0.00 0.00 58 1014.6
20260503233440 78 163 0.0 0.0 0.00 0.00 0.00 57 1014.5
20260503232937 79 156 0.0 0.0 0.00 0.00 0.00 56 1014.3
20260503232434 80 180 0.0 0.0 0.00 0.00 0.00 54 1014.2
20260503231932 81 110 0.0 0.0 0.00 0.00 0.00 53 1014.3
20260503231429 81 156 0.0 0.0 0.00 0.00 0.00 52 1014.1
20260503230925 81 179 0.0 0.0 0.00 0.00 0.00 53 1014.2
20260503230422 81 148 0.0 0.0 0.00 0.00 0.00 52 1014.1
20260503225920 82 164 0.0 0.0 0.00 0.00 0.00 53 1014.4
20260503225416 82 52 3.0 3.0 0.00 0.00 0.00 52 1014.3
20260503224912 82 113 0.0 1.0 0.00 0.00 0.00 51 1014.3
20260503224409 83 130 0.0 0.0 0.00 0.00 0.00 52 1014.1
20260503223907 82 169 0.0 0.0 0.00 0.00 0.00 52 1014.3
20260503223405 83 46 0.0 0.0 0.00 0.00 0.00 50 1014.4
20260503222859 82 168 0.0 1.0 0.00 0.00 0.00 50 1014.2
20260503222358 84 154 0.0 0.0 0.00 0.00 0.00 49 1014.2
20260503221856 83 169 0.0 0.0 0.00 0.00 0.00 50 1014.3
20260503221355 83 120 0.0 0.0 0.00 0.00 0.00 51 1014.3
20260503220850 82 150 0.0 0.0 0.00 0.00 0.00 50 1014.4
20260503220347 83 153 0.0 1.0 0.00 0.00 0.00 50 1014.0
20260503215844 83 154 0.0 0.0 0.00 0.00 0.00 53 1014.3
20260503215341 83 197 0.0 0.0 0.00 0.00 0.00 50 1014.2
20260503214839 83 185 0.0 0.0 0.00 0.00 0.00 53 1014.3
20260503214336 82 170 0.0 0.0 0.00 0.00 0.00 53 1014.2
20260503213833 81 198 0.0 0.0 0.00 0.00 0.00 53 1014.3
20260503213331 82 148 0.0 0.0 0.00 0.00 0.00 52 1014.3
20260503212828 82 164 1.0 2.0 0.00 0.00 0.00 52 1014.4
20260503212326 84 155 0.0 1.0 0.00 0.00 0.00 52 1014.3
20260503211823 82 223 0.0 0.0 0.00 0.00 0.00 51 1014.4
20260503211319 83 78 0.0 0.0 0.00 0.00 0.00 50 1014.1
20260503210819 82 211 0.0 0.0 0.00 0.00 0.00 53 1014.3
20260503210317 80 127 0.0 0.0 0.00 0.00 0.00 55 1014.2
20260503205812 80 176 0.0 0.0 0.00 0.00 0.00 54 1014.3
20260503205309 83 50 0.0 0.0 0.00 0.00 0.00 52 1014.4
20260503204805 82 217 0.0 0.0 0.00 0.00 0.00 53 1014.2
20260503204303 82 196 2.0 3.0 0.00 0.00 0.00 52 1014.3
20260503203800 80 121 0.0 0.0 0.00 0.00 0.00 55 1014.3
20260503203257 83 122 0.0 0.0 0.00 0.00 0.00 52 1014.5
20260503202754 83 171 0.0 0.0 0.00 0.00 0.00 53 1014.5
20260503202252 82 131 0.0 0.0 0.00 0.00 0.00 55 1014.6
20260503201750 82 165 0.0 0.0 0.00 0.00 0.00 54 1014.6
20260503201247 83 155 0.0 0.0 0.00 0.00 0.00 54 1014.8
20260503200744 82 212 0.0 0.0 0.00 0.00 0.00 53 1014.7
20260503200240 82 283 0.0 0.0 0.00 0.00 0.00 52 1014.8
20260503195737 83 159 0.0 0.0 0.00 0.00 0.00 52 1014.8
20260503195234 82 75 1.0 2.0 0.00 0.00 0.00 54 1015.0
20260503194732 80 173 0.0 0.0 0.00 0.00 0.00 55 1014.9
20260503194227 79 104 0.0 0.0 0.00 0.00 0.00 57 1015.0
20260503193723 81 102 1.0 5.0 0.00 0.00 0.00 57 1015.1
20260503193219 83 176 0.0 0.0 0.00 0.00 0.00 55 1015.0
20260503192715 81 167 0.0 0.0 0.00 0.00 0.00 58 1015.1
20260503192210 81 146 0.0 0.0 0.00 0.00 0.00 58 1015.5
20260503191708 80 146 0.0 0.0 0.00 0.00 0.00 59 1015.7
20260503191205 79 29 0.0 2.0 0.00 0.00 0.00 59 1015.8
20260503190701 80 159 1.0 5.0 0.00 0.00 0.00 59 1016.0
20260503190158 80 171 0.0 0.0 0.00 0.00 0.00 59 1015.9
20260503185655 80 211 0.0 0.0 0.00 0.00 0.00 58 1016.0
20260503185150 79 62 0.0 0.0 0.00 0.00 0.00 62 1016.2
20260503184645 80 33 0.0 0.0 0.00 0.00 0.00 59 1016.2
20260503184142 80 176 0.0 0.0 0.00 0.00 0.00 59 1016.0
20260503183638 79 160 0.0 0.0 0.00 0.00 0.00 60 1016.0
20260503183136 79 153 1.0 2.0 0.00 0.00 0.00 61 1016.3
20260503182634 80 152 0.0 0.0 0.00 0.00 0.00 61 1016.3
20260503182132 78 146 0.0 1.0 0.00 0.00 0.00 62 1016.4
20260503181629 79 78 0.0 0.0 0.00 0.00 0.00 64 1016.3
20260503181126 79 67 0.0 0.0 0.00 0.00 0.00 62 1016.5
20260503180622 80 125 0.0 1.0 0.00 0.00 0.00 60 1016.5
20260503180120 78 131 0.0 0.0 0.00 0.00 0.00 64 1016.5
20260503175617 78 158 0.0 2.0 0.00 0.00 0.00 63 1016.4
20260503175114 80 157 1.0 1.0 0.00 0.00 0.00 60 1016.5
20260503174611 79 103 0.0 0.0 0.00 0.00 0.00 61 1016.7
20260503174108 78 157 0.0 0.0 0.00 0.00 0.00 66 1016.6
20260503173603 80 156 0.0 0.0 0.00 0.00 0.00 62 1016.7
20260503173059 80 31 0.0 0.0 0.00 0.00 0.00 64 1016.8
20260503172556 80 164 1.0 2.0 0.00 0.00 0.00 60 1016.7
20260503172054 80 193 2.0 9.0 0.00 0.00 0.00 60 1017.1
20260503171550 79 137 1.0 2.0 0.00 0.00 0.00 62 1016.9
20260503171048 78 175 1.0 1.0 0.00 0.00 0.00 63 1016.7
20260503170544 78 111 0.0 2.0 0.00 0.00 0.00 65 1017.0
20260503150937 72 179 0.0 0.0 0.00 0.00 0.00 73 1017.7
20260503150433 72 145 4.0 6.0 0.00 0.00 0.00 72 1017.5
20260503131326 65 151 2.0 3.0 0.00 0.00 0.00 89 1016.5
20260503130824 65 256 0.0 0.0 0.00 0.00 0.00 90 1016.3
20260503130321 65 141 0.0 0.0 0.00 0.00 0.00 90 1016.4
20260503110714 62 169 0.0 0.0 0.00 0.00 0.00 94 1015.4
20260503110212 63 135 0.0 0.0 0.00 0.00 0.00 94 1015.2
20260503100138 63 159 0.0 0.0 0.00 0.00 0.00 93 1014.9
20260503081533 63 170 0.0 0.0 0.00 0.00 0.00 94 1014.2
20260503081030 63 140 0.0 0.0 0.00 0.00 0.00 94 1014.2
20260503080526 63 176 0.0 0.0 0.00 0.00 0.00 94 1014.0
20260503072500 64 194 0.0 0.0 0.00 0.00 0.00 94 1013.8
20260503071957 64 172 0.0 0.0 0.00 0.00 0.00 94 1013.9
20260503071454 64 172 0.0 0.0 0.00 0.00 0.00 94 1013.9
20260503070950 64 204 0.0 0.0 0.00 0.00 0.00 94 1014.0
20260503070447 64 143 0.0 0.0 0.00 0.00 0.00 94 1014.1
20260503054906 66 172 0.0 0.0 0.00 0.00 0.00 93 1014.1
20260503054402 66 144 0.0 0.0 0.00 0.00 0.00 93 1014.2
20260503053900 66 159 0.0 0.0 0.00 0.00 0.00 93 1014.4
20260503053358 66 177 0.0 0.0 0.00 0.00 0.00 93 1014.2
20260503052854 66 150 0.0 0.0 0.00 0.00 0.00 93 1014.2
20260503052351 66 184 0.0 0.0 0.00 0.00 0.00 93 1014.0
20260503051847 66 172 0.0 0.0 0.00 0.00 0.00 93 1014.1
20260503051344 66 296 0.0 0.0 0.00 0.00 0.00 93 1013.8
20260503050841 66 251 0.0 0.0 0.00 0.00 0.00 93 1014.0
20260503050337 66 166 0.0 0.0 0.00 0.00 0.00 93 1014.0
20260503045834 66 211 0.0 0.0 0.00 0.00 0.00 94 1013.9
20260503045332 66 154 0.0 0.0 0.00 0.00 0.00 94 1013.8
20260503044828 66 88 0.0 1.0 0.00 0.00 0.00 95 1013.9
20260503044325 66 195 0.0 0.0 0.00 0.00 0.00 95 1013.9
20260503043822 67 86 0.0 0.0 0.00 0.00 0.00 95 1013.8